Location: Cottbus
(51.7000°N, 14.3000°E)
Time: 19:35:16
(UTC+02:00)

Envisat - Visible Passes

Search period start: 19 October 2021 00:00
Search period end: 29 October 2021 00:00
Orbit: 764 x 766 km, 98.2° (Epoch: 18 October)

Date Brightness Start Highest point End Pass type
(mag) Time Alt. Az. Time Alt. Az. Time Alt. Az.
19 Oct 3.6 06:04:02 10° NNE 06:09:05 59° E 06:14:06 10° S visible
19 Oct 6.7 19:08:32 10° W 19:09:06 10° W 19:09:42 10° WNW visible
20 Oct 4.9 05:27:31 10° NNE 05:32:00 30° E 05:36:28 10° SSE visible
20 Oct 6.0 18:27:55 10° SW 18:31:42 21° W 18:35:31 10° NW visible
21 Oct 5.9 04:51:40 10° NE 04:54:44 16° E 04:57:46 10° ESE visible
21 Oct 3.0 06:29:20 10° NNE 06:34:27 87° WNW 06:39:32 10° SSW visible
22 Oct 4.0 05:52:34 10° NNE 05:57:30 48° E 06:02:25 10° S visible
22 Oct 6.3 18:55:06 10° WSW 18:57:23 13° W 18:59:41 10° WNW visible
23 Oct 5.3 05:16:11 10° NE 05:20:22 25° E 05:24:32 10° SSE visible
23 Oct 3.1 06:54:45 10° N 06:59:44 56° WNW 07:04:41 10° SW visible
24 Oct 6.1 04:40:48 10° ENE 04:43:01 13° E 04:45:14 10° ESE visible
24 Oct 3.2 06:17:48 10° NNE 06:22:56 77° ESE 06:28:00 10° S visible
25 Oct 4.4 05:41:08 10° NNE 05:45:55 39° E 05:50:40 10° SSE visible
25 Oct 6.1 18:42:36 10° SW 18:45:41 16° W 18:48:47 10° NW visible
26 Oct 5.6 05:04:56 10° NE 05:08:43 21° E 05:12:28 10° SE visible
26 Oct 3.0 06:43:09 10° N 06:48:14 68° WNW 06:53:16 10° SSW visible
27 Oct 3.5 06:06:17 10° NNE 06:11:22 63° ESE 06:16:24 10° S visible
28 Oct 4.8 05:29:44 10° NNE 05:34:18 32° E 05:38:50 10° SSE visible
28 Oct 3.3 07:08:39 10° N 07:13:27 43° WNW 07:18:15 10° SW visible
28 Oct 6.0 18:30:22 10° SW 18:34:00 20° W 18:37:40 10° NW visible
